This is the latest recevied weather packets stored in our database for station/object K8WEH. If no packets are shown the sender has not sent any weather packets the latest 1 day(s).
| Time | Temp. | Humidity | Pressure | Rain* | Wind** | Luminosity | Snow |
|---|---|---|---|---|---|---|---|
| 1778002259 | 20.56° C | 62% | 1011.4 hPa | 0 mm | 0.45 m/s, 148° | - | - |
| 1778001955 | 20.56° C | 59% | 1011.4 hPa | 0 mm | 0.89 m/s, 107° | - | - |
| 1778001653 | 21.11° C | 60% | 1011.4 hPa | 0 mm | 0.45 m/s, 177° | - | - |
| 1778001360 | 21.11° C | 58% | 1011.4 hPa | 0 mm | 1.34 m/s, 120° | - | - |
| 1778001054 | 21.11° C | 60% | 1011.4 hPa | 0 mm | 0.45 m/s, 205° | - | - |
| 1778000755 | 21.11° C | 61% | 1011.5 hPa | 0 mm | 0.45 m/s, 205° | - | - |
| 1778000451 | 21.11° C | 61% | 1011.5 hPa | 0 mm | 0.45 m/s, 104° | - | - |
| 1778000151 | 20.56° C | 59% | 1011.6 hPa | 0 mm | 0.89 m/s, 252° | - | - |
| 1777999850 | 20.56° C | 61% | 1011.5 hPa | 0 mm | 0.45 m/s, 236° | - | - |
| 1777999551 | 20.56° C | 61% | 1011.5 hPa | 0 mm | 0.45 m/s, 196° | - | - |
| 1777999249 | 20.56° C | 60% | 1011.4 hPa | 0 mm | 0.45 m/s, 186° | - | - |
| 1777998949 | 20.56° C | 61% | 1011.5 hPa | 0 mm | 0.45 m/s, 166° | - | - |
| 1777998649 | 20.56° C | 61% | 1011.5 hPa | 0 mm | 0.89 m/s, 197° | - | - |
| 1777998348 | 20.56° C | 61% | 1011.5 hPa | 0 mm | 0.45 m/s, 229° | - | - |
| 1777998047 | 20° C | 63% | 1011.6 hPa | 0 mm | 0.45 m/s, 151° | - | - |
| 1777997758 | 20° C | 61% | 1011.6 hPa | 0 mm | 0.89 m/s, 305° | - | - |
| 1777997447 | 20° C | 61% | 1011.5 hPa | 0 mm | 0.89 m/s, 143° | - | - |
| 1777997147 | 20° C | 62% | 1011.4 hPa | 0 mm | 0.45 m/s, 174° | - | - |
| 1777996851 | 20° C | 61% | 1011.5 hPa | 0 mm | 0.45 m/s, 192° | - | - |
| 1777996547 | 20° C | 61% | 1011.5 hPa | 0 mm | 0.45 m/s, 232° | - | - |
| 1777996246 | 20° C | 63% | 1011.5 hPa | 0 mm | 0.45 m/s, 186° | - | - |
| 1777995945 | 20° C | 62% | 1011.4 hPa | 0 mm | 0 m/s | - | - |
| 1777995646 | 20° C | 62% | 1011.5 hPa | 0 mm | 0.45 m/s, 117° | - | - |
| 1777995345 | 20° C | 65% | 1011.5 hPa | 0 mm | 0.45 m/s, 215° | - | - |
| 1777995045 | 20° C | 61% | 1011.6 hPa | 0 mm | 0.45 m/s, 153° | - | - |
* Rain latest hour (hover to see other rain measurements)
** Current wind speed in m/s (hover to see current wind gust speed)